Overview Statistics Trail Chart Weather Telemetry Raw packets
 

This is the latest recevied weather packets stored in our database for station/object KY0TEQ-13. If no packets are shown the sender has not sent any weather packets the latest 10 day(s).

<< 79 80 81 82 83 84 85 >>
Time Temp. Humidity Pressure Rain* Wind** Luminosity Snow
1788114637 21.67° C 45% 1310.8 hPa 0 mm - 376 W/m² -
1788114332 22.22° C 45% 1311.2 hPa 0 mm - 331 W/m² -
1788114028 22.22° C 45% 1311.1 hPa 0 mm - 419 W/m² -
1788113724 21.67° C 46% 1311.2 hPa 0 mm - 340 W/m² -
1788113423 21.67° C 47% 1311.3 hPa 0 mm - 357 W/m² -
1788113117 22.78° C 44% 1311.4 hPa 0 mm - 385 W/m² -
1788112817 22.78° C 44% 1311.7 hPa 0 mm - 370 W/m² -
1788112511 22.22° C 46% 1311.6 hPa 0 mm - 410 W/m² -
1788112206 21.67° C 47% 1311.6 hPa 0 mm - 358 W/m² -
1788111901 21.67° C 47% 1311.6 hPa 0 mm - 406 W/m² -
1788111596 21.67° C 48% 1311.7 hPa 0 mm - 430 W/m² -
1788111292 21.67° C 49% 1311.6 hPa 0 mm - 440 W/m² -
1788110684 21.11° C 49% 1311.9 hPa 0 mm - 340 W/m² -
1788110379 20.56° C 51% 1311.9 hPa 0 mm - 289 W/m² -
1788110074 20.56° C 53% 1311.9 hPa 0 mm - 339 W/m² -
1788109769 20.56° C 55% 1311.9 hPa 0 mm - 369 W/m² -
1788109469 20° C 55% 1311.9 hPa 0 mm - 305 W/m² -
1788109167 19.44° C 58% 1312.1 hPa 0 mm - 240 W/m² -
1788108863 20.56° C 56% 1311.8 hPa 0 mm - 239 W/m² -
1788108559 20° C 58% 1311.9 hPa 0 mm - 340 W/m² -
1788108255 19.44° C 58% 1311.9 hPa 0 mm - 284 W/m² -
1788107967 18.89° C 61% 1311.8 hPa 0 mm - 241 W/m² -
1788107646 18.33° C 64% 1311.8 hPa 0 mm - 217 W/m² -
1788107347 18.33° C 66% 1311.4 hPa 0 mm - 197 W/m² -
1788107042 17.78° C 70% 1311.6 hPa 3.05 mm - 234 W/m² -

* Rain latest hour (hover to see other rain measurements)
** Current wind speed in m/s (hover to see current wind gust speed)